2023/01/28 00:00:00,140.5,-4.3
2023/01/28 00:10:00,141.4,-4.5
2023/01/28 00:20:00,141.6,-4.2
2023/01/28 00:30:00,141.8,-4.4
2023/01/28 00:40:00,142.8,-4.3
2023/01/28 00:50:00,143.0,-4.5
2023/01/28 01:00:00,142.8,-4.6
2023/01/28 01:10:00,143.0,-4.4
2023/01/28 01:20:00,143.7,-4.5
2023/01/28 01:30:00,145.5,-4.5
2023/01/28 01:40:00,146.5,-4.5
2023/01/28 01:50:00,147.4,-4.3
2023/01/28 02:00:00,147.6,-4.6
2023/01/28 02:10:00,147.6,-4.7
2023/01/28 02:20:00,147.8,-4.6
2023/01/28 02:30:00,147.9,-4.5
2023/01/28 02:40:00,149.0,-4.5
2023/01/28 02:50:00,150.1,-4.6
2023/01/28 03:00:00,150.1,-4.6
2023/01/28 03:10:00,150.3,-4.7
2023/01/28 03:20:00,150.2,-4.6
2023/01/28 03:30:00,150.2,-4.5
2023/01/28 03:40:00,150.3,-4.8
2023/01/28 03:50:00,150.3,-4.8
2023/01/28 04:00:00,150.4,-4.4
2023/01/28 04:10:00,150.4,-4.6
2023/01/28 04:20:00,151.4,-4.5
2023/01/28 04:30:00,152.4,-4.8
2023/01/28 04:40:00,152.5,-4.8
2023/01/28 04:50:00,153.7,-4.9
2023/01/28 05:00:00,154.1,-4.9
2023/01/28 05:10:00,153.8,-5.3
2023/01/28 05:20:00,153.5,-5.6
2023/01/28 05:30:00,153.2,-5.2
2023/01/28 05:40:00,153.6,-5.2
2023/01/28 05:50:00,153.7,-5.1
2023/01/28 06:00:00,153.8,-5.0
2023/01/28 06:10:00,153.9,-5.0
2023/01/28 06:20:00,153.9,-5.1
2023/01/28 06:30:00,153.6,-5.0
2023/01/28 06:40:00,153.4,-5.2
2023/01/28 06:50:00,153.2,-5.2
2023/01/28 07:00:00,153.3,-5.0
2023/01/28 07:10:00,153.6,-5.2
2023/01/28 07:20:00,154.3,-4.9
2023/01/28 07:30:00,154.6,-4.8
2023/01/28 07:40:00,154.6,-4.6
2023/01/28 07:50:00,154.6,-4.8
2023/01/28 08:00:00,155.2,-4.2
2023/01/28 08:10:00,155.4,-4.4
2023/01/28 08:20:00,155.4,-4.5
2023/01/28 08:30:00,155.7,-4.4
2023/01/28 08:40:00,156.3,-3.4
2023/01/28 08:50:00,156.2,-2.0
2023/01/28 09:00:00,156.0,-2.2
2023/01/28 09:10:00,156.2,-2.9
2023/01/28 09:20:00,156.6,-3.1
2023/01/28 09:30:00,156.9,-3.0
2023/01/28 09:40:00,157.0,-2.7
2023/01/28 09:50:00,156.8,-2.7
2023/01/28 10:00:00,156.6,-2.0
2023/01/28 10:10:00,156.3,-1.4
2023/01/28 10:20:00,156.6,-1.4
2023/01/28 10:30:00,157.0,-2.0
2023/01/28 10:40:00,157.4,-1.7
2023/01/28 10:50:00,158.2,-0.6
2023/01/28 11:00:00,158.5,-1.1
2023/01/28 11:10:00,158.6,-1.3
2023/01/28 11:20:00,158.8,-2.2
2023/01/28 11:30:00,158.9,-2.1
2023/01/28 11:40:00,159.3,-1.9
2023/01/28 11:50:00,159.2,-2.0
2023/01/28 12:00:00,159.2,-1.5
2023/01/28 12:10:00,159.1,-1.2
2023/01/28 12:20:00,159.1,-1.5
2023/01/28 12:30:00,159.3,-1.7
2023/01/28 12:40:00,159.1,-0.6
2023/01/28 12:50:00,158.8,-1.8
2023/01/28 13:00:00,158.7,-1.9
2023/01/28 13:10:00,158.7,-2.3
2023/01/28 13:20:00,158.8,-2.3
2023/01/28 13:30:00,158.9,-2.6
2023/01/28 13:40:00,159.0,-2.4
2023/01/28 13:50:00,159.0,-2.3
2023/01/28 14:00:00,159.2,-2.9
2023/01/28 14:10:00,159.0,-2.9
2023/01/28 14:20:00,159.0,-2.8
2023/01/28 14:30:00,159.2,-2.6
2023/01/28 14:40:00,159.1,-1.6
2023/01/28 14:50:00,159.0,-2.4
2023/01/28 15:00:00,158.9,-3.2
2023/01/28 15:10:00,158.7,-3.1
2023/01/28 15:20:00,159.1,-2.9
2023/01/28 15:30:00,159.3,-3.6
2023/01/28 15:40:00,159.0,-4.2
2023/01/28 15:50:00,158.9,-4.1
2023/01/28 16:00:00,158.8,-3.8
2023/01/28 16:10:00,158.5,-4.3
2023/01/28 16:20:00,158.3,-3.8
2023/01/28 16:30:00,158.1,-4.1
2023/01/28 16:40:00,158.0,-4.0
2023/01/28 16:50:00,157.7,-4.5
2023/01/28 17:00:00,157.5,-4.5
2023/01/28 17:10:00,157.3,-4.4
2023/01/28 17:20:00,157.1,-4.8
2023/01/28 17:30:00,157.0,-4.8
2023/01/28 17:40:00,156.8,-4.9
2023/01/28 17:50:00,156.5,-5.1
2023/01/28 18:00:00,156.2,-5.3
2023/01/28 18:10:00,156.2,-5.4
2023/01/28 18:20:00,156.1,-5.7
2023/01/28 18:30:00,155.8,-5.9
2023/01/28 18:40:00,155.6,-5.6
2023/01/28 18:50:00,155.4,-6.0
2023/01/28 19:00:00,155.2,-6.0
2023/01/28 19:10:00,155.3,-6.3
2023/01/28 19:20:00,155.3,-6.2
2023/01/28 19:30:00,155.1,-6.3
2023/01/28 19:40:00,154.9,-6.4
2023/01/28 19:50:00,154.7,-6.2
2023/01/28 20:00:00,154.5,-6.5
2023/01/28 20:10:00,154.7,-6.6
2023/01/28 20:20:00,154.8,-6.6
2023/01/28 20:30:00,155.0,-6.4
2023/01/28 20:40:00,155.6,-6.6
2023/01/28 20:50:00,155.8,-6.9
2023/01/28 21:00:00,156.9,-6.5
2023/01/28 21:10:00,157.5,-6.4
2023/01/28 21:20:00,158.5,-6.5
2023/01/28 21:30:00,159.4,-6.5
2023/01/28 21:40:00,159.6,-6.6
2023/01/28 21:50:00,160.1,-6.4
2023/01/28 22:00:00,160.4,-6.7
2023/01/28 22:10:00,160.9,-6.2
2023/01/28 22:20:00,161.9,-6.3
2023/01/28 22:30:00,162.3,-6.6
2023/01/28 22:40:00,162.1,-6.5
2023/01/28 22:50:00,161.7,-6.3
2023/01/28 23:00:00,161.5,-6.7
2023/01/28 23:10:00,161.8,-6.3
2023/01/28 23:20:00,163.1,-6.4
2023/01/28 23:30:00,164.2,-6.5
2023/01/28 23:40:00,164.5,-6.4
2023/01/28 23:50:00,164.4,-6.8
